sat.trackr.live / text

‹ back to catalog

STARLINK-11723 [DTC]

NORAD 64075 · 2025-107M

PAYLOAD ACTIVE UNKNOWN

§ Identity

Operator
Country
US
Launch date
2025-05-21
Launch site
AFETR
Launch vehicle
Mass (kg)
RCS (m²)

Purposes: comms

External: N2YO · Heavens-Above · Gunter

§ Orbital elements

Epoch: 2026-09-20T07:06:30.291552Z

Period
91.66 min
Inclination
42.9994°
Eccentricity
0.0004580
Mean motion
15.70953288 rev/d
Perigee alt
353.1 km
Apogee alt
359.3 km
Semi-major
6,734.3 km
B*
1.2847e-3
RAAN
5.2926°
Arg perigee
294.3570°
Mean anomaly
65.6820°
Rev number
7,790

§ Raw data

STARLINK-11723 [DTC]1 64075U 25107M   26263.29618393  .00168649  00000+0  12847-2 0  99942 64075  42.9994   5.2926 0004580 294.3570  65.6820 15.70953288 77900

JSON: /api/v1/satellites/64075 · /tle

For live sub-satellite position, see the globe view (requires WebGL).

§ Visibility from observer

Set your observer location to see the next 7 days of passes ≥ 10°. The values pass through the URL so the page stays shareable.

No JS? Fill the form by hand. The geolocation button needs JavaScript.